SL-14 DEB, 45332

Orbit data source: Space-Track

SL-14 DEB, 45332 is space debris in LEO originally from a launch on Thu, 15 Aug 1991 UTC launched from the Plesetsk Missile And Space Complex (PKMTR). Debris objects in space refer to the collection of defunct objects orbiting the Earth. Examples of debris include non-operational satellites, rocket bodies, and fragments generated from explosions, collisions, or faulty payload assembly.

Loading next visibility...
SL-14 DEB details
Identifier
45332, 1991-056BW
Orbit
LEO
Last TLE update14 hours ago
Origin
Flag of CISRosgidromet (CIS)
ManufacturerUnknown
MissionSpacecraft
Bus & MotorUnknown
MassUnknown
Launch date (UTC)
1991-08-15 (33 years ago)
Launch vehicleUnknown
Launch site
Plesetsk Missile And Space Complex (PKMTR)
Object type
Payload
Rocket body
Debris
Shape & HBRUnknown
Radar Cross SectionSmall (<0.1 m²)

Expand to show TLE details & history

TLE from 14 hours ago
0 SL-14 DEB
1 45332U 91056BW  24361.18075765  .00000350  00000-0  90499-3 0  9995
2 45332  82.5520 168.8142 0106582  96.4648 264.8621 13.12898494230867
Epoch: 2024-12-26T04:20Z
Definitive object data (Epoch: 2024-12-26T04:20:17.46Z)
Latitude-0.00001°
Longitude8.5776°
Altitude1,222.87 km
Speed7.239 km/s
True Right ascension11h 15m 15s
True Declination0° 00' 00"
Sunlit
Object was in daylight at TLE epoch
Visualization TLE readout
Latitude27.77896°
Longitude-175.74763°
Altitude1,170.552 km
Speed7.292 km/s
Apparent Right ascension01h 29m 17s
Apparent Declination-4° 05' 56"
Sunlit
Object is in daylight
Visualization observer readout
Local Sidereal Time17:16:29
Azimuth70.496° E
Elevation-27.695°
Doppler factor1
Orbital elements
Apogee altitude1,290.085 km
Perigee altitude1,128.35 km
Semi-major axis7,587.354 km
Eccentricity0.0106582
Inclination82.552°
RAAN168.8142°
Arg. of periapsis96.4648°
True anomaly263.64721°
Mean anomaly264.8621°
Eccentric anomaly264.2545°
Mean motion3.28403 °/min
BSTAR0.00090499
Orbital period109.62 mins
Loading maneuver chart data...
Loading historical data...
Loading historical data...
Loading historical data...
Loading historical data...
Loading historical data...
Loading historical data...
Loading historical data...

SL-14 DEB Visibility forecast

Observer location: undefined°, undefined

Span
Click to sort rows by Start time (UTC) header in descending order
Start Az.
Max El. time (UTC)
Max El. Az.
Max El.
End time (UTC)
End Az.
6 mins2024-12-26 21:25:04.884Z38.559° NE2024-12-26 21:28:04.884Z64.877° ENE13.004°2024-12-26 21:31:04.884Z90.532° ESE
12 mins2024-12-26 23:14:04.884Z354.702° N2024-12-26 23:19:04.884Z24.608° NE44.386°2024-12-26 23:26:04.884Z171.192° S
5 mins2024-12-27 01:07:04.884Z299.473° NW2024-12-27 01:09:04.884Z280.864° WNW14.58°2024-12-27 01:12:04.884Z253.965° W
12 mins2024-12-27 11:32:04.884Z162.601° S2024-12-27 11:38:04.884Z85.812° E38.622°2024-12-27 11:44:04.884Z18.7° NNE
10 mins2024-12-27 13:24:04.884Z240.975° WSW2024-12-27 13:29:04.884Z293.456° NW23.838°2024-12-27 13:34:04.884Z342.013° N
|